Location: Newark
(42.8270°N, 8.3618°W)
Time: 03:38:12
(UTC+00:00)

Hubble Space Telescope - Pass Details

Date: 28 September 2020
Orbit: 536 x 540 km, 28.5° (Epoch: 21 October)

Event Time Altitude Azimuth Distance (km) Brightness Sun altitude
Exits shadow 05:45:01 - 222° (SW) 2,314 3.6 -8.7°
Reaches altitude 10° 05:47:47 10° 192° (SSW) 1,776 3.2 -8.1°
Maximum altitude 05:48:47 11° 178° (S) 1,729 3.3 -8.0°
Drops below altitude 10° 05:49:46 10° 164° (SSE) 1,775 3.6 -7.8°
Sets 05:53:45 0° 126° (SE) 2,665 5.2 -7.1°
